Weather History for Mackinac Island, MI

Change the Weather History Date:

Tuesday, November 27, 2012

  Actual Average Record
Temperature  
Mean Temperature 28 °F -  
Max Temperature 32 °F 36 °F 56 °F (1990)
Min Temperature 24 °F 28 °F 12 °F (1985)
Degree Days  
Heating Degree Days 37    
Moisture  
Dew Point 22 °F    
Average Humidity 74    
Maximum Humidity 93    
Minimum Humidity 62    
Precipitation  
Precipitation 0.00 in - - ()
Sea Level Pressure  
Sea Level Pressure 30.16 in    
Wind  
Wind Speed 12 mph (WSW)    
Max Wind Speed 23 mph    
Max Gust Speed 32 mph    
Visibility 8 miles    
Events Snow    
Averages and records for this station are not official NWS values.
T = Trace of Precipitation, MM = Missing Value Source: NWS Daily Summary

Daily Weather History Graph

Daily Weather History Graph

Search for Another Location

Airport:

Trip Planner

Search our weather history database for the weather conditions in past years. The results will help you decide how hot, cold, wet, or windy it might be!

Date:

Astronomy

Nov. 27, 2012 Rise Set
Actual Time 7:55 AM EST 4:57 PM EST
Civil Twilight 7:21 AM EST 5:30 PM EST
Nautical Twilight 6:44 AM EST 6:07 PM EST
Astronomical Twilight 6:08 AM EST 6:43 PM EST
Moon 4:28 PM EST (11/27) 6:58 AM EST (11/27)
Length of Visible Light 10h 08m
Length of Day
9h 01m
Waxing Gibbous, 99% of the Moon is Illuminated
Nov 27
Waxing Gibbous
Nov 28
Full
Dec 6
Last Quarter
Dec 13
New
Dec 20
First Quarter

Hourly Weather History & Observations

Time (EST) Temp. Windchill Dew Point Humidity Pressure Visibility Wind Dir Wind Speed Gust Speed Precip Events Conditions
12:15 AM 24.8 °F 14.0 °F 18.1 °F 76% 30.24 in 10.0 mi WNW 11.5 mph - N/A   Clear
12:36 AM 24.8 °F 16.1 °F 18.9 °F 78% 30.24 in 10.0 mi WNW 8.1 mph - N/A   Clear
12:56 AM 25.0 °F 16.3 °F 18.7 °F 77% 30.23 in 10.0 mi WNW 8.1 mph - N/A   Clear
1:15 AM 25.7 °F 15.1 °F 18.1 °F 73% 30.23 in 10.0 mi West 11.5 mph - N/A   Clear
1:36 AM 25.7 °F 17.1 °F 18.5 °F 74% 30.23 in 10.0 mi WNW 8.1 mph - N/A   Clear
1:56 AM 25.3 °F 15.3 °F 19.4 °F 78% 30.23 in 10.0 mi West 10.4 mph 16.1 mph N/A   Clear
2:15 AM 25.3 °F 15.3 °F 20.1 °F 81% 30.23 in 10.0 mi WNW 10.4 mph 17.3 mph N/A   Clear
2:36 AM 25.7 °F 14.6 °F 19.9 °F 79% 30.24 in 10.0 mi WNW 12.7 mph 18.4 mph N/A   Mostly Cloudy
2:56 AM 25.7 °F 15.1 °F 18.1 °F 73% 30.23 in 10.0 mi WNW 11.5 mph 17.3 mph N/A   Overcast
3:16 AM 25.9 °F 16.6 °F 18.7 °F 74% 30.24 in 10.0 mi WNW 9.2 mph - N/A   Overcast
3:35 AM 25.7 °F 16.4 °F 20.1 °F 79% 30.23 in 10.0 mi WNW 9.2 mph - N/A   Overcast
3:56 AM 25.3 °F 16.7 °F 20.5 °F 82% 30.23 in 10.0 mi WNW 8.1 mph - N/A Snow Light Snow
4:16 AM 25.2 °F 16.5 °F 20.3 °F 82% 30.22 in 10.0 mi WNW 8.1 mph - N/A   Overcast
4:35 AM 25.9 °F 17.4 °F 19.0 °F 75% 30.22 in 10.0 mi West 8.1 mph - N/A   Overcast
4:56 AM 26.6 °F 15.2 °F 16.9 °F 67% 30.22 in 10.0 mi West 13.8 mph 19.6 mph N/A   Overcast
5:16 AM 26.6 °F 14.3 °F 17.1 °F 67% 30.22 in 10.0 mi West 16.1 mph 21.9 mph N/A   Overcast
5:35 AM 26.6 °F 15.2 °F 17.4 °F 68% 30.21 in 10.0 mi West 13.8 mph 20.7 mph N/A   Overcast
5:56 AM 26.6 °F 15.2 °F 16.9 °F 67% 30.22 in 10.0 mi WSW 13.8 mph 24.2 mph N/A   Overcast
6:16 AM 26.8 °F 14.5 °F 17.8 °F 69% 30.22 in 10.0 mi West 16.1 mph 23.0 mph N/A   Overcast
7:36 AM 27.0 °F 16.7 °F 18.1 °F 69% 30.21 in 10.0 mi WSW 11.5 mph 18.4 mph N/A   Overcast
7:56 AM 27.3 °F 16.6 °F 18.5 °F 69% 30.21 in 10.0 mi West 12.7 mph 18.4 mph N/A   Overcast
8:15 AM 27.9 °F 19.1 °F 18.7 °F 68% 30.21 in 10.0 mi WSW 9.2 mph 19.6 mph N/A   Overcast
8:36 AM 28.4 °F 18.5 °F 17.8 °F 64% 30.21 in 10.0 mi WSW 11.5 mph 21.9 mph N/A   Overcast
8:56 AM 28.6 °F 18.2 °F 18.1 °F 65% 30.21 in 10.0 mi WSW 12.7 mph 25.3 mph N/A   Overcast
9:15 AM 28.9 °F 17.7 °F 19.2 °F 67% 30.21 in 10.0 mi WSW 15.0 mph 26.5 mph N/A   Overcast
9:36 AM 29.1 °F 18.9 °F 19.0 °F 66% 30.21 in 10.0 mi WSW 12.7 mph 24.2 mph N/A   Overcast
9:56 AM 29.1 °F 17.9 °F 19.4 °F 67% 30.20 in 10.0 mi WSW 15.0 mph 25.3 mph N/A   Overcast
10:15 AM 29.5 °F 19.3 °F 20.7 °F 70% 30.20 in 10.0 mi WSW 12.7 mph 24.2 mph N/A   Overcast
10:36 AM 30.0 °F 19.1 °F 20.7 °F 68% 30.21 in 10.0 mi WSW 15.0 mph 24.2 mph N/A   Overcast
10:56 AM 30.0 °F 19.5 °F 19.4 °F 65% 30.20 in 10.0 mi SW 13.8 mph 29.9 mph N/A   Overcast
11:15 AM 30.0 °F 19.1 °F 20.7 °F 68% 30.20 in 10.0 mi SW 15.0 mph 26.5 mph N/A   Overcast
11:36 AM 30.6 °F 19.4 °F 20.7 °F 67% 30.19 in 10.0 mi WSW 16.1 mph 27.6 mph N/A   Overcast
11:56 AM 30.7 °F 18.8 °F 21.6 °F 69% 30.18 in 10.0 mi WSW 18.4 mph 27.6 mph N/A   Overcast
12:15 PM 30.9 °F 19.4 °F 20.7 °F 66% 30.18 in 10.0 mi WSW 17.3 mph 24.2 mph N/A   Overcast
12:36 PM 31.1 °F 19.3 °F 20.3 °F 64% 30.17 in 10.0 mi SW 18.4 mph 32.2 mph N/A   Overcast
12:56 PM 31.8 °F 21.0 °F 19.9 °F 62% 30.17 in 10.0 mi SW 16.1 mph 27.6 mph N/A   Overcast
1:15 PM 32.0 °F 20.5 °F 20.3 °F 62% 30.16 in 10.0 mi SW 18.4 mph 31.1 mph N/A   Overcast
1:36 PM 32.0 °F 20.8 °F 20.8 °F 63% 30.15 in 10.0 mi SW 17.3 mph 29.9 mph N/A   Overcast
1:56 PM 32.0 °F 20.8 °F 21.4 °F 65% 30.15 in 10.0 mi SW 17.3 mph 31.1 mph N/A Snow Light Snow
2:15 PM 31.6 °F 19.3 °F 22.8 °F 70% 30.14 in 7.0 mi SW 20.7 mph 29.9 mph N/A Snow Light Snow
2:36 PM 31.3 °F 20.7 °F 24.1 °F 75% 30.13 in 3.0 mi SW 15.0 mph 27.6 mph N/A Snow Light Snow
2:56 PM 31.3 °F 21.1 °F 24.8 °F 77% 30.13 in 3.0 mi SW 13.8 mph 25.3 mph N/A Snow Light Snow
3:15 PM 31.5 °F 21.4 °F 24.4 °F 75% 30.12 in 5.0 mi SW 13.8 mph 24.2 mph N/A Snow Light Snow
3:36 PM 31.6 °F 20.7 °F 25.3 °F 78% 30.12 in 4.0 mi SW 16.1 mph 26.5 mph N/A Snow Light Snow
3:55 PM 31.6 °F 21.6 °F 25.9 °F 79% 30.11 in 3.0 mi SW 13.8 mph 23.0 mph N/A Snow Light Snow
4:15 PM 31.5 °F 20.9 °F 26.4 °F 82% 30.11 in 1.5 mi SW 15.0 mph 24.2 mph N/A Snow Light Snow
4:55 PM 30.9 °F 20.7 °F 27.7 °F 88% 30.10 in 1.2 mi SW 13.8 mph 20.7 mph N/A Snow Light Snow
5:15 PM 30.9 °F 21.7 °F 28.0 °F 89% 30.10 in 1.5 mi SSW 11.5 mph 19.6 mph N/A Snow Light Snow
6:16 PM 30.6 °F 20.7 °F 27.7 °F 89% 30.08 in 1.8 mi SSW 12.7 mph 21.9 mph N/A Snow Light Snow
6:55 PM 30.2 °F 20.8 °F 25.5 °F 83% 30.08 in 5.0 mi SW 11.5 mph 26.5 mph N/A Snow Light Snow
7:16 PM 30.7 °F 20.9 °F 24.6 °F 78% 30.07 in 10.0 mi SW 12.7 mph 21.9 mph N/A   Overcast
7:36 PM 30.9 °F 20.2 °F 24.4 °F 77% 30.07 in 10.0 mi SSW 15.0 mph 24.2 mph N/A   Overcast
7:55 PM 30.9 °F 20.2 °F 23.9 °F 75% 30.06 in 10.0 mi SW 15.0 mph 27.6 mph N/A   Overcast
8:16 PM 31.1 °F 20.1 °F 23.9 °F 75% 30.05 in 10.0 mi SW 16.1 mph 28.8 mph N/A   Scattered Clouds
8:36 PM 31.5 °F 20.9 °F 23.4 °F 72% 30.05 in 10.0 mi SW 15.0 mph 25.3 mph N/A   Scattered Clouds
8:55 PM 31.5 °F 21.4 °F 22.8 °F 70% 30.04 in 10.0 mi SW 13.8 mph 20.7 mph N/A   Clear
9:16 PM 31.6 °F 22.1 °F 22.6 °F 69% 30.03 in 10.0 mi SSW 12.7 mph 25.3 mph N/A   Scattered Clouds
9:36 PM 32.0 °F 22.1 °F 23.0 °F 69% 30.02 in 10.0 mi SSW 13.8 mph 26.5 mph N/A   Mostly Cloudy
9:55 PM 31.8 °F 19.9 °F 24.8 °F 75% 30.02 in 3.0 mi SW 19.6 mph 32.2 mph N/A Snow Light Snow
10:16 PM 30.7 °F - 27.7 °F 88% 30.03 in 0.8 mi North - - N/A Snow Snow
11:16 PM 32.0 °F 19.2 °F 29.5 °F 90% 30.02 in 3.0 mi West 23.0 mph 29.9 mph N/A Snow Light Snow
11:36 PM 31.8 °F 20.2 °F 30.0 °F 93% 30.02 in 1.5 mi West 18.4 mph 28.8 mph N/A Snow Light Snow